Time,TemperatureF,DewpointF,PressureIn,WindDirection,WindDirectionDegrees,WindSpeedMPH,WindSpeedGustMPH,Humidity,HourlyPrecipIn,Conditions,Clouds,dailyrainin,SoftwareType,DateUTC
2013-10-17 00:04:00,54.5,48.5,30.05,SW,234,0.0,0.0,80,0.00,NA,NA,-99.99,VWS Version 10.38,2013-10-17 04:04:00,
2013-10-17 00:09:00,54.5,48.5,30.05,SW,234,0.0,0.0,80,0.00,NA,NA,-99.99,VWS Version 10.38,2013-10-17 04:09:00,
2013-10-17 00:14:00,54.7,48.6,30.05,SW,234,0.0,0.0,80,0.00,NA,NA,-99.99,VWS Version 10.38,2013-10-17 04:14:00,
2013-10-17 00:19:00,54.9,49.2,30.05,SW,234,0.0,0.0,81,0.00,NA,NA,-99.99,VWS Version 10.38,2013-10-17 04:19:00,
2013-10-17 00:24:00,54.9,49.2,30.05,SW,234,0.0,0.0,81,0.00,NA,NA,-99.99,VWS Version 10.38,2013-10-17 04:24:00,
2013-10-17 00:29:00,55.0,49.3,30.05,SW,234,0.0,0.0,81,0.00,NA,NA,-99.99,VWS Version 10.38,2013-10-17 04:29:00,
2013-10-17 00:34:00,55.2,49.5,30.05,SW,234,0.0,0.0,81,0.00,NA,NA,-99.99,VWS Version 10.38,2013-10-17 04:34:00,
2013-10-17 00:39:00,55.2,49.5,30.05,SW,234,0.0,0.0,81,0.00,NA,NA,-99.99,VWS Version 10.38,2013-10-17 04:39:00,
2013-10-17 00:44:00,55.4,49.7,30.05,SW,234,0.0,0.0,81,0.00,NA,NA,-99.99,VWS Version 10.38,2013-10-17 04:44:00,
2013-10-17 00:49:00,55.6,49.8,30.05,SW,234,0.0,0.0,81,0.00,NA,NA,-99.99,VWS Version 10.38,2013-10-17 04:49:00,
2013-10-17 00:54:00,55.6,49.8,30.05,SW,234,0.0,0.0,81,0.00,NA,NA,-99.99,VWS Version 10.38,2013-10-17 04:54:00,
2013-10-17 01:04:00,55.8,50.0,30.05,SW,234,0.0,0.0,81,0.00,NA,NA,-99.99,VWS Version 10.38,2013-10-17 05:04:00,
2013-10-17 01:09:00,55.8,50.0,30.05,SW,234,0.0,0.0,81,0.00,NA,NA,-99.99,VWS Version 10.38,2013-10-17 05:09:00,
2013-10-17 01:14:00,55.9,50.5,30.05,SW,234,0.0,0.0,82,0.00,NA,NA,-99.99,VWS Version 10.38,2013-10-17 05:14:00,
2013-10-17 01:19:00,55.9,50.5,30.05,SW,234,0.0,0.0,82,0.00,NA,NA,-99.99,VWS Version 10.38,2013-10-17 05:19:00,
2013-10-17 01:24:00,55.9,50.5,30.05,SW,234,0.0,0.0,82,0.00,NA,NA,-99.99,VWS Version 10.38,2013-10-17 05:24:00,
2013-10-17 01:29:00,55.9,50.5,30.05,SW,234,0.0,0.0,82,0.00,NA,NA,-99.99,VWS Version 10.38,2013-10-17 05:29:00,
2013-10-17 01:35:00,55.9,50.5,30.05,SW,234,0.0,0.0,82,0.00,NA,NA,-99.99,VWS Version 10.38,2013-10-17 05:35:00,
2013-10-17 01:45:00,55.9,50.5,30.05,SW,234,0.0,0.0,82,0.00,NA,NA,-99.99,VWS Version 10.38,2013-10-17 05:45:00,
2013-10-17 01:50:00,56.1,50.7,30.05,SW,234,0.0,0.0,82,0.00,NA,NA,-99.99,VWS Version 10.38,2013-10-17 05:50:00,
2013-10-17 01:55:00,56.3,50.9,30.05,SW,234,0.0,0.0,82,0.00,NA,NA,-99.99,VWS Version 10.38,2013-10-17 05:55:00,
2013-10-17 02:05:00,56.3,50.9,30.05,SW,234,0.0,0.0,82,0.00,NA,NA,-99.99,VWS Version 10.38,2013-10-17 06:05:00,
2013-10-17 02:10:00,56.3,50.9,30.05,SW,234,0.0,0.0,82,0.00,NA,NA,-99.99,VWS Version 10.38,2013-10-17 06:10:00,
2013-10-17 02:20:00,56.3,50.9,30.05,SW,234,0.0,0.0,82,0.00,NA,NA,-99.99,VWS Version 10.38,2013-10-17 06:20:00,
2013-10-17 02:25:00,56.3,50.9,30.02,SW,234,0.0,0.0,82,0.00,NA,NA,-99.99,VWS Version 10.38,2013-10-17 06:25:00,
2013-10-17 02:30:00,56.3,50.9,30.02,SW,234,0.0,0.0,82,0.00,NA,NA,-99.99,VWS Version 10.38,2013-10-17 06:30:00,
2013-10-17 02:35:00,56.3,50.9,30.02,SW,234,0.0,0.0,82,0.00,NA,NA,-99.99,VWS Version 10.38,2013-10-17 06:35:00,
2013-10-17 02:40:00,56.5,51.4,30.02,SW,234,0.0,0.0,83,0.00,NA,NA,-99.99,VWS Version 10.38,2013-10-17 06:40:00,
2013-10-17 02:45:00,56.5,51.1,30.02,SW,234,0.0,0.0,82,0.00,NA,NA,-99.99,VWS Version 10.38,2013-10-17 06:45:00,
2013-10-17 02:50:00,56.5,51.4,30.02,SW,234,0.0,0.0,83,0.00,NA,NA,-99.99,VWS Version 10.38,2013-10-17 06:50:00,
2013-10-17 03:00:00,56.5,51.4,30.02,SW,234,0.0,0.0,83,0.00,NA,NA,-99.99,VWS Version 10.38,2013-10-17 07:00:00,
2013-10-17 03:05:00,56.5,51.4,30.02,SW,234,0.0,0.0,83,0.00,NA,NA,-99.99,VWS Version 10.38,2013-10-17 07:05:00,
2013-10-17 03:10:00,56.7,51.6,30.02,SW,234,0.0,0.0,83,0.00,NA,NA,-99.99,VWS Version 10.38,2013-10-17 07:10:00,
2013-10-17 03:15:00,56.7,51.6,30.02,SW,234,0.0,0.0,83,0.00,NA,NA,-99.99,VWS Version 10.38,2013-10-17 07:15:00,
2013-10-17 03:20:00,56.7,51.6,30.02,SW,234,0.0,0.0,83,0.00,NA,NA,-99.99,VWS Version 10.38,2013-10-17 07:20:00,
2013-10-17 03:25:00,56.7,51.6,30.02,SW,234,0.0,0.0,83,0.00,NA,NA,-99.99,VWS Version 10.38,2013-10-17 07:25:00,
2013-10-17 03:30:00,56.7,51.6,30.02,SW,234,0.0,0.0,83,0.00,NA,NA,-99.99,VWS Version 10.38,2013-10-17 07:30:00,
2013-10-17 03:39:00,56.8,51.7,30.02,SW,234,0.0,0.0,83,0.00,NA,NA,-99.99,VWS Version 10.38,2013-10-17 07:39:00,
2013-10-17 03:44:00,56.8,51.7,30.02,SW,234,0.0,0.0,83,0.00,NA,NA,-99.99,VWS Version 10.38,2013-10-17 07:44:00,
2013-10-17 03:49:00,56.8,51.7,30.02,SW,234,0.0,0.0,83,0.00,NA,NA,-99.99,VWS Version 10.38,2013-10-17 07:49:00,
2013-10-17 03:54:00,56.8,51.7,30.02,SW,234,0.0,0.0,83,0.00,NA,NA,-99.99,VWS Version 10.38,2013-10-17 07:54:00,
2013-10-17 03:59:00,56.8,51.7,30.02,SW,234,0.0,0.0,83,0.00,NA,NA,-99.99,VWS Version 10.38,2013-10-17 07:59:00,
2013-10-17 04:04:00,56.8,51.7,30.02,SW,234,0.0,0.0,83,0.00,NA,NA,-99.99,VWS Version 10.38,2013-10-17 08:04:00,
2013-10-17 04:14:00,57.0,51.9,30.02,SW,234,0.0,0.0,83,0.00,NA,NA,-99.99,VWS Version 10.38,2013-10-17 08:14:00,
2013-10-17 04:19:00,57.0,51.9,30.02,SW,234,0.0,0.0,83,0.00,NA,NA,-99.99,VWS Version 10.38,2013-10-17 08:19:00,
2013-10-17 04:24:00,57.0,51.9,30.02,SW,234,0.0,0.0,83,0.00,NA,NA,-99.99,VWS Version 10.38,2013-10-17 08:24:00,
2013-10-17 04:29:00,57.0,51.9,30.02,SW,234,0.0,0.0,83,0.00,NA,NA,-99.99,VWS Version 10.38,2013-10-17 08:29:00,
2013-10-17 04:34:00,57.0,51.9,30.02,SW,234,0.0,0.0,83,0.00,NA,NA,-99.99,VWS Version 10.38,2013-10-17 08:34:00,
2013-10-17 04:39:00,57.2,52.1,30.02,SW,234,0.0,0.0,83,0.00,NA,NA,-99.99,VWS Version 10.38,2013-10-17 08:39:00,
2013-10-17 04:44:00,57.2,52.1,30.02,SW,234,0.0,0.0,83,0.00,NA,NA,-99.99,VWS Version 10.38,2013-10-17 08:44:00,
2013-10-17 04:54:00,57.2,52.1,30.02,SW,234,0.0,0.0,83,0.00,NA,NA,-99.99,VWS Version 10.38,2013-10-17 08:54:00,
2013-10-17 04:59:00,57.2,52.1,30.02,SW,234,0.0,0.0,83,0.00,NA,NA,-99.99,VWS Version 10.38,2013-10-17 08:59:00,
2013-10-17 05:04:00,57.4,52.3,30.02,SW,234,0.0,0.0,83,0.00,NA,NA,-99.99,VWS Version 10.38,2013-10-17 09:04:00,
2013-10-17 05:09:00,57.4,52.3,30.02,SW,234,0.0,0.0,83,0.00,NA,NA,-99.99,VWS Version 10.38,2013-10-17 09:09:00,
2013-10-17 05:14:00,57.4,52.3,30.02,SW,234,0.0,0.0,83,0.00,NA,NA,-99.99,VWS Version 10.38,2013-10-17 09:14:00,
2013-10-17 05:19:00,57.4,52.3,30.02,SW,234,0.0,0.0,83,0.00,NA,NA,-99.99,VWS Version 10.38,2013-10-17 09:19:00,
2013-10-17 05:24:00,57.4,52.3,30.02,SW,234,0.0,0.0,83,0.00,NA,NA,-99.99,VWS Version 10.38,2013-10-17 09:24:00,
2013-10-17 05:34:00,57.7,53.0,30.02,SW,234,0.0,0.0,84,0.00,NA,NA,-99.99,VWS Version 10.38,2013-10-17 09:34:00,
2013-10-17 05:39:00,57.9,53.1,30.02,SW,234,0.0,0.0,84,0.00,NA,NA,-99.99,VWS Version 10.38,2013-10-17 09:39:00,
2013-10-17 05:44:00,58.1,53.3,30.02,SW,234,0.0,0.0,84,0.00,NA,NA,-99.99,VWS Version 10.38,2013-10-17 09:44:00,
2013-10-17 05:49:00,58.1,53.3,30.02,SW,234,0.0,0.0,84,0.00,NA,NA,-99.99,VWS Version 10.38,2013-10-17 09:49:00,
2013-10-17 05:54:00,58.1,53.3,30.02,SW,234,0.0,0.0,84,0.00,NA,NA,-99.99,VWS Version 10.38,2013-10-17 09:54:00,
2013-10-17 05:59:00,58.1,53.3,30.02,SW,234,0.0,0.0,84,0.00,NA,NA,-99.99,VWS Version 10.38,2013-10-17 09:59:00,
2013-10-17 06:09:00,57.9,53.1,30.02,SW,234,0.0,0.0,84,0.00,NA,NA,-99.99,VWS Version 10.38,2013-10-17 10:09:00,
2013-10-17 06:14:00,57.9,53.1,30.02,SW,234,0.0,0.0,84,0.00,NA,NA,-99.99,VWS Version 10.38,2013-10-17 10:14:00,
2013-10-17 06:19:00,57.9,53.1,30.02,SW,234,0.0,0.0,84,0.00,NA,NA,-99.99,VWS Version 10.38,2013-10-17 10:19:00,
2013-10-17 06:24:00,58.1,53.3,30.02,SE,140,0.0,0.0,84,0.00,NA,NA,-99.99,VWS Version 10.38,2013-10-17 10:24:00,
2013-10-17 06:29:00,57.9,53.1,30.02,SE,140,0.0,0.0,84,0.00,NA,NA,-99.99,VWS Version 10.38,2013-10-17 10:29:00,
2013-10-17 06:34:00,57.9,53.1,30.02,SE,140,0.0,0.0,84,0.00,NA,NA,-99.99,VWS Version 10.38,2013-10-17 10:34:00,
2013-10-17 06:44:00,58.5,53.7,30.02,ESE,115,0.0,0.0,84,0.00,NA,NA,-99.99,VWS Version 10.38,2013-10-17 10:44:00,
2013-10-17 06:49:00,58.6,54.2,30.02,SE,132,0.0,0.0,85,0.00,NA,NA,-99.99,VWS Version 10.38,2013-10-17 10:49:00,
2013-10-17 06:54:00,58.8,54.3,30.02,SE,132,0.0,0.0,85,0.00,NA,NA,-99.99,VWS Version 10.38,2013-10-17 10:54:00,
2013-10-17 06:59:00,58.8,54.0,29.99,WSW,250,0.0,0.0,84,0.00,NA,NA,-99.99,VWS Version 10.38,2013-10-17 10:59:00,
2013-10-17 07:04:00,59.0,54.2,29.99,WSW,238,0.0,0.0,84,0.00,NA,NA,-99.99,VWS Version 10.38,2013-10-17 11:04:00,
2013-10-17 07:09:00,59.0,54.2,30.02,SE,138,0.0,0.0,84,0.00,NA,NA,-99.99,VWS Version 10.38,2013-10-17 11:09:00,
2013-10-17 07:19:00,59.2,54.4,30.02,SE,131,0.0,0.0,84,0.00,NA,NA,-99.99,VWS Version 10.38,2013-10-17 11:19:00,
2013-10-17 07:24:00,59.4,54.9,30.02,SE,131,0.0,0.0,85,0.00,NA,NA,-99.99,VWS Version 10.38,2013-10-17 11:24:00,
2013-10-17 07:29:00,59.5,55.0,30.02,SSW,206,0.0,0.0,85,0.00,NA,NA,-99.99,VWS Version 10.38,2013-10-17 11:29:00,
2013-10-17 07:34:00,59.5,55.0,30.02,East,98,0.0,0.0,85,0.00,NA,NA,-99.99,VWS Version 10.38,2013-10-17 11:34:00,
2013-10-17 07:39:00,59.7,55.2,30.02,ESE,103,0.0,0.0,85,0.00,NA,NA,-99.99,VWS Version 10.38,2013-10-17 11:39:00,
2013-10-17 07:44:00,59.7,55.2,30.02,SSW,203,0.0,0.0,85,0.00,NA,NA,-99.99,VWS Version 10.38,2013-10-17 11:44:00,
2013-10-17 07:49:00,59.9,55.4,30.02,SSW,203,0.0,0.0,85,0.00,NA,NA,-99.99,VWS Version 10.38,2013-10-17 11:49:00,
2013-10-17 07:59:00,60.1,55.6,30.02,SE,131,0.0,0.0,85,0.00,NA,NA,-99.99,VWS Version 10.38,2013-10-17 11:59:00,
2013-10-17 08:04:00,60.3,56.1,30.02,SE,131,0.0,0.0,86,0.00,NA,NA,-99.99,VWS Version 10.38,2013-10-17 12:04:00,
2013-10-17 08:09:00,60.3,56.1,30.02,SSW,212,0.0,0.0,86,0.00,NA,NA,-99.99,VWS Version 10.38,2013-10-17 12:09:00,
2013-10-17 08:14:00,60.4,56.2,30.02,SSW,212,0.0,0.0,86,0.00,NA,NA,-99.99,VWS Version 10.38,2013-10-17 12:14:00,
2013-10-17 08:19:00,60.4,56.2,30.02,SSW,212,0.0,0.0,86,0.00,NA,NA,-99.99,VWS Version 10.38,2013-10-17 12:19:00,
2013-10-17 08:24:00,60.4,56.2,30.02,WSW,254,0.0,0.0,86,0.00,NA,NA,-99.99,VWS Version 10.38,2013-10-17 12:24:00,
2013-10-17 08:34:00,61.0,56.8,30.02,WSW,254,0.0,0.0,86,0.00,NA,NA,-99.99,VWS Version 10.38,2013-10-17 12:34:00,
2013-10-17 08:44:00,61.2,57.0,30.02,WSW,254,0.0,0.0,86,0.00,NA,NA,-99.99,VWS Version 10.38,2013-10-17 12:44:00,
2013-10-17 08:49:00,61.3,57.1,30.02,WSW,254,0.0,0.0,86,0.00,NA,NA,-99.99,VWS Version 10.38,2013-10-17 12:49:00,
2013-10-17 08:54:00,61.3,57.1,30.02,WSW,254,0.0,0.0,86,0.00,NA,NA,-99.99,VWS Version 10.38,2013-10-17 12:54:00,
2013-10-17 08:59:00,61.7,57.5,30.02,WSW,254,0.0,0.0,86,0.00,NA,NA,-99.99,VWS Version 10.38,2013-10-17 12:59:00,
2013-10-17 09:09:00,61.9,57.7,30.02,WSW,247,0.0,0.0,86,0.00,NA,NA,-99.99,VWS Version 10.38,2013-10-17 13:09:00,
2013-10-17 09:14:00,62.1,57.8,30.02,WSW,247,0.0,0.0,86,0.00,NA,NA,-99.99,VWS Version 10.38,2013-10-17 13:14:00,
2013-10-17 09:19:00,62.4,58.5,30.02,WSW,247,0.0,0.0,87,0.00,NA,NA,-99.99,VWS Version 10.38,2013-10-17 13:19:00,
2013-10-17 09:24:00,62.4,58.5,30.02,West,265,0.0,0.0,87,0.00,NA,NA,-99.99,VWS Version 10.38,2013-10-17 13:24:00,
2013-10-17 09:29:00,62.6,58.4,30.02,West,265,0.0,0.0,86,0.00,NA,NA,-99.99,VWS Version 10.38,2013-10-17 13:29:00,
2013-10-17 09:34:00,62.8,58.5,30.02,West,265,0.0,0.0,86,0.00,NA,NA,-99.99,VWS Version 10.38,2013-10-17 13:34:00,
2013-10-17 09:39:00,62.8,58.5,30.02,West,265,0.0,0.0,86,0.00,NA,NA,-99.99,VWS Version 10.38,2013-10-17 13:39:00,
2013-10-17 09:49:00,63.7,59.7,30.02,SSW,211,2.2,2.2,87,0.00,NA,NA,-99.99,VWS Version 10.38,2013-10-17 13:49:00,
2013-10-17 09:54:00,64.4,60.5,30.02,SSE,155,0.0,0.0,87,0.00,NA,NA,-99.99,VWS Version 10.38,2013-10-17 13:54:00,
2013-10-17 09:59:00,64.9,61.0,30.02,SSW,212,0.0,0.0,87,0.00,NA,NA,-99.99,VWS Version 10.38,2013-10-17 13:59:00,
2013-10-17 10:04:00,65.3,61.3,30.02,WNW,296,0.0,0.0,87,0.00,NA,NA,-99.99,VWS Version 10.38,2013-10-17 14:04:00,
2013-10-17 10:09:00,65.1,60.8,30.02,SSW,205,3.6,3.6,86,0.00,NA,NA,-99.99,VWS Version 10.38,2013-10-17 14:09:00,
2013-10-17 10:14:00,65.1,60.5,30.02,WSW,248,5.8,5.8,85,0.00,NA,NA,-99.99,VWS Version 10.38,2013-10-17 14:14:00,
2013-10-17 10:24:00,65.5,60.9,30.02,WNW,303,2.2,2.2,85,0.00,NA,NA,-99.99,VWS Version 10.38,2013-10-17 14:24:00,
2013-10-17 10:29:00,65.5,60.2,30.02,WNW,303,0.0,0.0,83,0.00,NA,NA,-99.99,VWS Version 10.38,2013-10-17 14:29:00,
2013-10-17 10:34:00,65.5,60.2,30.02,SSW,193,0.0,0.0,83,0.00,NA,NA,-99.99,VWS Version 10.38,2013-10-17 14:34:00,
2013-10-17 10:39:00,65.8,60.5,30.02,SSW,208,0.0,0.0,83,0.00,NA,NA,-99.99,VWS Version 10.38,2013-10-17 14:39:00,
2013-10-17 10:44:00,66.0,60.4,30.02,SW,233,0.0,0.0,82,0.00,NA,NA,-99.99,VWS Version 10.38,2013-10-17 14:44:00,
2013-10-17 10:49:00,66.2,60.2,30.02,SSW,204,0.0,0.0,81,0.00,NA,NA,-99.99,VWS Version 10.38,2013-10-17 14:49:00,
2013-10-17 10:54:00,66.2,59.9,30.02,SSW,203,0.0,0.0,80,0.00,NA,NA,-99.99,VWS Version 10.38,2013-10-17 14:54:00,
2013-10-17 11:04:00,66.7,60.0,29.99,WNW,286,0.0,0.0,79,0.00,NA,NA,-99.99,VWS Version 10.38,2013-10-17 15:04:00,
2013-10-17 11:09:00,66.7,59.7,29.99,SSW,200,0.0,0.0,78,0.00,NA,NA,-99.99,VWS Version 10.38,2013-10-17 15:09:00,
2013-10-17 11:14:00,66.7,59.3,29.99,SW,214,0.0,0.0,77,0.00,NA,NA,-99.99,VWS Version 10.38,2013-10-17 15:14:00,
2013-10-17 11:19:00,66.6,58.8,29.99,SW,222,0.0,0.0,76,0.00,NA,NA,-99.99,VWS Version 10.38,2013-10-17 15:19:00,
2013-10-17 11:24:00,66.6,58.4,29.99,WNW,284,4.0,4.0,75,0.00,NA,NA,-99.99,VWS Version 10.38,2013-10-17 15:24:00,
2013-10-17 11:29:00,66.4,57.8,29.99,SW,222,0.0,0.0,74,0.00,NA,NA,-99.99,VWS Version 10.38,2013-10-17 15:29:00,
2013-10-17 11:35:00,66.6,57.7,29.99,WSW,255,2.7,2.7,73,0.00,NA,NA,-99.99,VWS Version 10.38,2013-10-17 15:35:00,
2013-10-17 11:40:00,66.6,57.7,29.99,West,277,0.0,0.0,73,0.00,NA,NA,-99.99,VWS Version 10.38,2013-10-17 15:40:00,
2013-10-17 11:45:00,66.6,57.3,29.99,West,272,0.0,0.0,72,0.00,NA,NA,-99.99,VWS Version 10.38,2013-10-17 15:45:00,
2013-10-17 11:50:00,66.6,56.9,29.99,NW,308,4.5,4.5,71,0.00,NA,NA,-99.99,VWS Version 10.38,2013-10-17 15:50:00,
2013-10-17 11:55:00,66.6,56.9,29.99,WSW,257,0.0,0.0,71,0.00,NA,NA,-99.99,VWS Version 10.38,2013-10-17 15:55:00,
2013-10-17 12:05:00,66.7,56.7,29.99,WNW,290,0.0,0.0,70,0.00,NA,NA,-99.99,VWS Version 10.38,2013-10-17 16:05:00,
2013-10-17 12:10:00,66.9,56.8,29.99,SSW,202,0.0,0.0,70,0.00,NA,NA,-99.99,VWS Version 10.38,2013-10-17 16:10:00,
2013-10-17 12:15:00,67.1,57.0,29.99,WNW,283,2.7,2.7,70,0.00,NA,NA,-99.99,VWS Version 10.38,2013-10-17 16:15:00,
2013-10-17 12:20:00,66.9,56.0,29.99,SW,231,2.7,2.7,68,0.00,NA,NA,-99.99,VWS Version 10.38,2013-10-17 16:20:00,
2013-10-17 12:25:00,66.7,55.8,29.99,WSW,238,0.0,0.0,68,0.00,NA,NA,-99.99,VWS Version 10.38,2013-10-17 16:25:00,
2013-10-17 12:30:00,66.7,55.8,29.99,WSW,242,0.0,0.0,68,0.00,NA,NA,-99.99,VWS Version 10.38,2013-10-17 16:30:00,
2013-10-17 12:35:00,66.9,56.0,29.99,WSW,246,0.0,0.0,68,0.00,NA,NA,-99.99,VWS Version 10.38,2013-10-17 16:35:00,
2013-10-17 12:45:00,67.3,56.0,29.99,SSW,202,0.0,0.0,67,0.00,NA,NA,-99.99,VWS Version 10.38,2013-10-17 16:45:00,
2013-10-17 12:50:00,67.6,56.3,29.99,West,262,0.0,0.0,67,0.00,NA,NA,-99.99,VWS Version 10.38,2013-10-17 16:50:00,
2013-10-17 12:55:00,67.8,56.1,29.99,WSW,252,4.9,4.9,66,0.00,NA,NA,-99.99,VWS Version 10.38,2013-10-17 16:55:00,
2013-10-17 13:00:00,67.8,55.6,29.99,WSW,248,3.1,3.1,65,0.00,NA,NA,-99.99,VWS Version 10.38,2013-10-17 17:00:00,
2013-10-17 13:05:00,67.6,55.0,29.99,NW,319,0.0,0.0,64,0.00,NA,NA,-99.99,VWS Version 10.38,2013-10-17 17:05:00,
2013-10-17 13:10:00,67.8,55.2,29.96,WSW,253,2.7,2.7,64,0.00,NA,NA,-99.99,VWS Version 10.38,2013-10-17 17:10:00,
2013-10-17 13:19:00,68.2,54.2,29.96,WSW,248,0.0,0.0,61,0.00,NA,NA,-99.99,VWS Version 10.38,2013-10-17 17:19:00,
2013-10-17 13:24:00,68.2,54.2,29.96,NW,314,0.0,0.0,61,0.00,NA,NA,-99.99,VWS Version 10.38,2013-10-17 17:24:00,
2013-10-17 13:29:00,68.7,54.7,29.96,WNW,284,0.0,0.0,61,0.00,NA,NA,-99.99,VWS Version 10.38,2013-10-17 17:29:00,
2013-10-17 13:34:00,69.3,55.2,29.96,WSW,258,0.0,0.0,61,0.00,NA,NA,-99.99,VWS Version 10.38,2013-10-17 17:34:00,
2013-10-17 13:39:00,69.8,55.3,29.96,SSW,211,0.0,0.0,60,0.00,NA,NA,-99.99,VWS Version 10.38,2013-10-17 17:39:00,
2013-10-17 13:44:00,70.2,55.2,29.96,SSW,203,3.6,3.6,59,0.00,NA,NA,-99.99,VWS Version 10.38,2013-10-17 17:44:00,
2013-10-17 13:54:00,70.5,55.0,29.96,SW,214,0.0,0.0,58,0.00,NA,NA,-99.99,VWS Version 10.38,2013-10-17 17:54:00,
2013-10-17 13:59:00,70.7,53.8,29.96,WSW,256,4.9,4.9,55,0.00,NA,NA,-99.99,VWS Version 10.38,2013-10-17 17:59:00,
2013-10-17 14:04:00,70.5,52.6,29.96,SW,232,0.0,0.0,53,0.00,NA,NA,-99.99,VWS Version 10.38,2013-10-17 18:04:00,
2013-10-17 14:09:00,70.2,52.2,29.93,SSW,208,4.0,4.0,53,0.00,NA,NA,-99.99,VWS Version 10.38,2013-10-17 18:09:00,
2013-10-17 14:14:00,70.0,50.5,29.93,SSW,200,0.0,0.0,50,0.00,NA,NA,-99.99,VWS Version 10.38,2013-10-17 18:14:00,
2013-10-17 14:19:00,69.8,50.9,29.93,South,185,0.0,0.0,51,0.00,NA,NA,-99.99,VWS Version 10.38,2013-10-17 18:19:00,
2013-10-17 14:24:00,70.3,51.4,29.93,SSW,207,2.7,2.7,51,0.00,NA,NA,-99.99,VWS Version 10.38,2013-10-17 18:24:00,
2013-10-17 14:34:00,71.2,51.7,29.93,SSW,212,3.6,3.6,50,0.00,NA,NA,-99.99,VWS Version 10.38,2013-10-17 18:34:00,
2013-10-17 14:39:00,72.0,51.2,29.93,NW,324,0.0,0.0,48,0.00,NA,NA,-99.99,VWS Version 10.38,2013-10-17 18:39:00,
2013-10-17 14:44:00,72.3,51.5,29.93,WSW,244,3.6,3.6,48,0.00,NA,NA,-99.99,VWS Version 10.38,2013-10-17 18:44:00,
2013-10-17 14:49:00,71.8,49.9,29.93,SW,224,2.7,2.7,46,0.00,NA,NA,-99.99,VWS Version 10.38,2013-10-17 18:49:00,
2013-10-17 14:54:00,70.7,48.9,29.93,SW,221,3.6,3.6,46,0.00,NA,NA,-99.99,VWS Version 10.38,2013-10-17 18:54:00,
2013-10-17 14:59:00,70.5,49.3,29.93,ESE,105,0.0,0.0,47,0.00,NA,NA,-99.99,VWS Version 10.38,2013-10-17 18:59:00,
2013-10-17 15:04:00,71.4,50.7,29.93,SW,217,2.2,2.2,48,0.00,NA,NA,-99.99,VWS Version 10.38,2013-10-17 19:04:00,
2013-10-17 15:14:00,72.0,50.1,29.93,SSW,207,0.0,0.0,46,0.00,NA,NA,-99.99,VWS Version 10.38,2013-10-17 19:14:00,
2013-10-17 15:19:00,72.5,49.4,29.93,ESE,110,2.7,2.7,44,0.00,NA,NA,-99.99,VWS Version 10.38,2013-10-17 19:19:00,
2013-10-17 15:24:00,72.1,48.4,29.93,SSE,149,2.2,2.2,43,0.00,NA,NA,-99.99,VWS Version 10.38,2013-10-17 19:24:00,
2013-10-17 15:29:00,72.0,48.9,29.93,SSW,208,0.0,0.0,44,0.00,NA,NA,-99.99,VWS Version 10.38,2013-10-17 19:29:00,
2013-10-17 15:34:00,72.0,48.9,29.93,SSW,201,0.0,0.0,44,0.00,NA,NA,-99.99,VWS Version 10.38,2013-10-17 19:34:00,
2013-10-17 15:39:00,72.0,48.3,29.93,SE,145,2.7,2.7,43,0.00,NA,NA,-99.99,VWS Version 10.38,2013-10-17 19:39:00,
2013-10-17 15:49:00,72.5,50.0,29.93,SSW,195,0.0,0.0,45,0.00,NA,NA,-99.99,VWS Version 10.38,2013-10-17 19:49:00,
2013-10-17 15:54:00,72.7,49.5,29.93,SE,144,4.0,4.0,44,0.00,NA,NA,-99.99,VWS Version 10.38,2013-10-17 19:54:00,
2013-10-17 15:59:00,72.7,48.9,29.93,SE,138,2.2,2.2,43,0.00,NA,NA,-99.99,VWS Version 10.38,2013-10-17 19:59:00,
2013-10-17 16:04:00,72.7,48.9,29.93,SW,227,3.6,3.6,43,0.00,NA,NA,-99.99,VWS Version 10.38,2013-10-17 20:04:00,
2013-10-17 16:09:00,72.5,48.1,29.93,SE,133,3.6,3.6,42,0.00,NA,NA,-99.99,VWS Version 10.38,2013-10-17 20:09:00,
2013-10-17 16:14:00,72.0,48.3,29.91,SE,124,0.0,0.0,43,0.00,NA,NA,-99.99,VWS Version 10.38,2013-10-17 20:14:00,
2013-10-17 16:19:00,71.6,48.6,29.91,East,90,2.2,2.2,44,0.00,NA,NA,-99.99,VWS Version 10.38,2013-10-17 20:19:00,
2013-10-17 16:24:00,71.2,48.8,29.91,SSE,161,3.1,3.1,45,0.00,NA,NA,-99.99,VWS Version 10.38,2013-10-17 20:24:00,
2013-10-17 16:29:00,70.9,48.5,29.91,SSE,162,0.0,0.0,45,0.00,NA,NA,-99.99,VWS Version 10.38,2013-10-17 20:29:00,
2013-10-17 16:34:00,70.7,48.9,29.91,West,262,2.2,2.2,46,0.00,NA,NA,-99.99,VWS Version 10.38,2013-10-17 20:34:00,
2013-10-17 16:44:00,70.3,48.6,29.91,SE,145,4.0,4.0,46,0.00,NA,NA,-99.99,VWS Version 10.38,2013-10-17 20:44:00,
2013-10-17 16:49:00,70.2,48.4,29.91,East,93,0.0,0.0,46,0.00,NA,NA,-99.99,VWS Version 10.38,2013-10-17 20:49:00,
2013-10-17 16:54:00,70.0,48.8,29.91,SW,215,0.0,0.0,47,0.00,NA,NA,-99.99,VWS Version 10.38,2013-10-17 20:54:00,
2013-10-17 16:59:00,69.8,48.7,29.93,ESE,121,2.7,2.7,47,0.00,NA,NA,-99.99,VWS Version 10.38,2013-10-17 20:59:00,
2013-10-17 17:04:00,69.6,48.5,29.93,SW,226,0.0,0.0,47,0.00,NA,NA,-99.99,VWS Version 10.38,2013-10-17 21:04:00,
2013-10-17 17:09:00,69.4,48.3,29.93,SSW,204,0.0,0.0,47,0.00,NA,NA,-99.99,VWS Version 10.38,2013-10-17 21:09:00,
2013-10-17 17:14:00,69.1,48.6,29.91,West,277,0.0,0.0,48,0.00,NA,NA,-99.99,VWS Version 10.38,2013-10-17 21:14:00,
2013-10-17 17:24:00,68.4,47.9,29.91,NNW,339,2.7,2.7,48,0.00,NA,NA,-99.99,VWS Version 10.38,2013-10-17 21:24:00,
2013-10-17 17:29:00,68.0,47.6,29.91,South,191,4.0,4.0,48,0.00,NA,NA,-99.99,VWS Version 10.38,2013-10-17 21:29:00,
2013-10-17 17:34:00,67.6,47.8,29.91,South,191,0.0,0.0,49,0.00,NA,NA,-99.99,VWS Version 10.38,2013-10-17 21:34:00,
2013-10-17 17:39:00,67.3,47.5,29.91,ESE,107,0.0,0.0,49,0.00,NA,NA,-99.99,VWS Version 10.38,2013-10-17 21:39:00,
2013-10-17 17:44:00,66.7,47.5,29.91,NE,46,0.0,0.0,50,0.00,NA,NA,-99.99,VWS Version 10.38,2013-10-17 21:44:00,
2013-10-17 17:49:00,66.4,47.2,29.91,ESE,108,0.0,0.0,50,0.00,NA,NA,-99.99,VWS Version 10.38,2013-10-17 21:49:00,
2013-10-17 17:59:00,65.8,47.7,29.91,SSE,147,0.0,0.0,52,0.00,NA,NA,-99.99,VWS Version 10.38,2013-10-17 21:59:00,
2013-10-17 18:04:00,65.5,47.9,29.91,SE,146,0.0,0.0,53,0.00,NA,NA,-99.99,VWS Version 10.38,2013-10-17 22:04:00,
2013-10-17 18:09:00,65.1,48.1,29.91,SSE,154,0.0,0.0,54,0.00,NA,NA,-99.99,VWS Version 10.38,2013-10-17 22:09:00,
2013-10-17 18:14:00,64.8,48.2,29.91,SE,138,2.2,2.2,55,0.00,NA,NA,-99.99,VWS Version 10.38,2013-10-17 22:14:00,
2013-10-17 18:19:00,64.4,47.9,29.91,ESE,123,0.0,0.0,55,0.00,NA,NA,-99.99,VWS Version 10.38,2013-10-17 22:19:00,
2013-10-17 18:24:00,64.0,48.0,29.91,SE,146,0.0,0.0,56,0.00,NA,NA,-99.99,VWS Version 10.38,2013-10-17 22:24:00,
2013-10-17 18:29:00,63.7,48.2,29.91,ENE,68,0.0,0.0,57,0.00,NA,NA,-99.99,VWS Version 10.38,2013-10-17 22:29:00,
2013-10-17 18:39:00,63.1,48.1,29.91,SSW,195,0.0,0.0,58,0.00,NA,NA,-99.99,VWS Version 10.38,2013-10-17 22:39:00,
2013-10-17 18:44:00,62.8,48.3,29.91,SSW,195,0.0,0.0,59,0.00,NA,NA,-99.99,VWS Version 10.38,2013-10-17 22:44:00,
2013-10-17 18:49:00,62.4,48.4,29.91,SSW,195,0.0,0.0,60,0.00,NA,NA,-99.99,VWS Version 10.38,2013-10-17 22:49:00,
2013-10-17 18:54:00,62.2,48.6,29.91,SSW,194,0.0,0.0,61,0.00,NA,NA,-99.99,VWS Version 10.38,2013-10-17 22:54:00,
2013-10-17 18:59:00,61.9,48.3,29.91,SSW,198,0.0,0.0,61,0.00,NA,NA,-99.99,VWS Version 10.38,2013-10-17 22:59:00,
2013-10-17 19:04:00,61.7,48.6,29.91,SSW,198,0.0,0.0,62,0.00,NA,NA,-99.99,VWS Version 10.38,2013-10-17 23:04:00,
2013-10-17 19:14:00,61.5,49.2,29.91,South,190,0.0,0.0,64,0.00,NA,NA,-99.99,VWS Version 10.38,2013-10-17 23:14:00,
2013-10-17 19:19:00,61.3,49.1,29.91,South,190,0.0,0.0,64,0.00,NA,NA,-99.99,VWS Version 10.38,2013-10-17 23:19:00,
2013-10-17 19:24:00,61.3,49.1,29.91,South,173,0.0,0.0,64,0.00,NA,NA,-99.99,VWS Version 10.38,2013-10-17 23:24:00,
2013-10-17 19:29:00,61.0,49.2,29.91,SSE,157,0.0,0.0,65,0.00,NA,NA,-99.99,VWS Version 10.38,2013-10-17 23:29:00,
2013-10-17 19:34:00,61.0,49.2,29.91,SSE,161,0.0,0.0,65,0.00,NA,NA,-99.99,VWS Version 10.38,2013-10-17 23:34:00,
2013-10-17 19:39:00,61.0,50.0,29.91,SSE,148,0.0,0.0,67,0.00,NA,NA,-99.99,VWS Version 10.38,2013-10-17 23:39:00,
2013-10-17 19:44:00,61.0,50.0,29.91,SE,144,0.0,0.0,67,0.00,NA,NA,-99.99,VWS Version 10.38,2013-10-17 23:44:00,
2013-10-17 19:54:00,60.8,50.2,29.91,SE,144,0.0,0.0,68,0.00,NA,NA,-99.99,VWS Version 10.38,2013-10-17 23:54:00,
2013-10-17 19:59:00,60.8,50.6,29.91,SE,144,0.0,0.0,69,0.00,NA,NA,-99.99,VWS Version 10.38,2013-10-17 23:59:00,
2013-10-17 20:04:00,60.8,50.6,29.91,SE,144,0.0,0.0,69,0.00,NA,NA,-99.99,VWS Version 10.38,2013-10-18 00:04:00,
2013-10-17 20:09:00,60.8,51.0,29.91,NE,35,0.0,0.0,70,0.00,NA,NA,-99.99,VWS Version 10.38,2013-10-18 00:09:00,
2013-10-17 20:14:00,60.6,50.8,29.91,NE,35,0.0,0.0,70,0.00,NA,NA,-99.99,VWS Version 10.38,2013-10-18 00:14:00,
2013-10-17 20:19:00,60.6,51.2,29.91,SSE,156,0.0,0.0,71,0.00,NA,NA,-99.99,VWS Version 10.38,2013-10-18 00:19:00,
2013-10-17 20:24:00,61.0,51.9,29.91,SE,143,0.0,0.0,72,0.00,NA,NA,-99.99,VWS Version 10.38,2013-10-18 00:24:00,
2013-10-17 20:34:00,61.5,52.8,29.91,South,172,0.0,0.0,73,0.00,NA,NA,-99.99,VWS Version 10.38,2013-10-18 00:34:00,
2013-10-17 20:39:00,61.5,52.8,29.91,SSE,147,0.0,0.0,73,0.00,NA,NA,-99.99,VWS Version 10.38,2013-10-18 00:39:00,
2013-10-17 20:44:00,61.7,53.3,29.91,SSW,204,0.0,0.0,74,0.00,NA,NA,-99.99,VWS Version 10.38,2013-10-18 00:44:00,
2013-10-17 20:49:00,61.7,54.1,29.91,SSW,203,2.2,2.2,76,0.00,NA,NA,-99.99,VWS Version 10.38,2013-10-18 00:49:00,
2013-10-17 20:54:00,61.7,54.1,29.91,SSE,149,4.9,4.9,76,0.00,NA,NA,-99.99,VWS Version 10.38,2013-10-18 00:54:00,
2013-10-17 20:59:00,61.7,54.4,29.91,ESE,120,0.0,0.0,77,0.00,NA,NA,-99.99,VWS Version 10.38,2013-10-18 00:59:00,
2013-10-17 21:09:00,61.7,54.4,29.91,SE,144,0.0,0.0,77,0.00,NA,NA,-99.99,VWS Version 10.38,2013-10-18 01:09:00,
2013-10-17 21:14:00,61.7,54.8,29.91,SSW,193,0.0,0.0,78,0.00,NA,NA,-99.99,VWS Version 10.38,2013-10-18 01:14:00,
2013-10-17 21:19:00,61.7,54.8,29.91,SSW,193,0.0,0.0,78,0.00,NA,NA,-99.99,VWS Version 10.38,2013-10-18 01:19:00,
2013-10-17 21:24:00,61.7,54.8,29.91,ESE,111,4.0,4.0,78,0.00,NA,NA,-99.99,VWS Version 10.38,2013-10-18 01:24:00,
2013-10-17 21:30:00,61.7,55.1,29.91,SSW,196,0.0,0.0,79,0.00,NA,NA,-99.99,VWS Version 10.38,2013-10-18 01:30:00,
2013-10-17 21:35:00,61.7,55.1,29.91,SE,145,2.7,2.7,79,0.00,NA,NA,-99.99,VWS Version 10.38,2013-10-18 01:35:00,
2013-10-17 21:40:00,61.7,55.1,29.91,SSE,148,0.0,0.0,79,0.00,NA,NA,-99.99,VWS Version 10.38,2013-10-18 01:40:00,
2013-10-17 21:50:00,61.7,55.5,29.91,SE,136,0.0,0.0,80,0.00,NA,NA,-99.99,VWS Version 10.38,2013-10-18 01:50:00,
2013-10-17 21:55:00,61.7,55.5,29.91,ENE,65,0.0,0.0,80,0.00,NA,NA,-99.99,VWS Version 10.38,2013-10-18 01:55:00,
2013-10-17 22:05:00,61.7,55.5,29.91,SSE,158,0.0,0.0,80,0.00,NA,NA,-99.99,VWS Version 10.38,2013-10-18 02:05:00,
2013-10-17 22:10:00,61.7,55.5,29.91,SSE,153,0.0,0.0,80,0.00,NA,NA,-99.99,VWS Version 10.38,2013-10-18 02:10:00,
2013-10-17 22:15:00,61.7,55.8,29.91,SE,143,2.7,2.7,81,0.00,NA,NA,-99.99,VWS Version 10.38,2013-10-18 02:15:00,
2013-10-17 22:20:00,61.7,55.8,29.91,SSE,157,0.0,0.0,81,0.00,NA,NA,-99.99,VWS Version 10.38,2013-10-18 02:20:00,
2013-10-17 22:25:00,61.7,55.8,29.91,SSE,159,3.1,3.1,81,0.00,NA,NA,-99.99,VWS Version 10.38,2013-10-18 02:25:00,
2013-10-17 22:30:00,61.7,55.8,29.91,SE,126,3.1,3.1,81,0.00,NA,NA,-99.99,VWS Version 10.38,2013-10-18 02:30:00,
2013-10-17 22:35:00,61.7,55.8,29.91,SSW,201,4.0,4.0,81,0.00,NA,NA,-99.99,VWS Version 10.38,2013-10-18 02:35:00,
2013-10-17 22:40:00,61.7,56.2,29.88,East,100,0.0,0.0,82,0.00,NA,NA,-99.99,VWS Version 10.38,2013-10-18 02:40:00,
2013-10-17 22:45:00,61.7,56.2,29.88,SE,141,3.1,3.1,82,0.00,NA,NA,-99.99,VWS Version 10.38,2013-10-18 02:45:00,
2013-10-17 22:50:00,61.5,56.0,29.88,SSW,208,0.0,0.0,82,0.00,NA,NA,-99.99,VWS Version 10.38,2013-10-18 02:50:00,
2013-10-17 22:55:00,61.5,56.0,29.88,SE,124,0.0,0.0,82,0.00,NA,NA,-99.99,VWS Version 10.38,2013-10-18 02:55:00,
2013-10-17 23:00:00,61.5,56.0,29.88,North,0,0.0,0.0,82,0.00,NA,NA,-99.99,VWS Version 10.38,2013-10-18 03:00:00,
2013-10-17 23:05:00,61.5,56.0,29.88,SSE,158,0.0,0.0,82,0.00,NA,NA,-99.99,VWS Version 10.38,2013-10-18 03:05:00,
2013-10-17 23:15:00,61.5,56.3,29.88,ESE,107,0.0,0.0,83,0.00,NA,NA,-99.99,VWS Version 10.38,2013-10-18 03:15:00,
2013-10-17 23:25:00,61.7,56.5,29.88,SSW,198,0.0,0.0,83,0.00,NA,NA,-99.99,VWS Version 10.38,2013-10-18 03:25:00,
2013-10-17 23:30:00,61.7,56.5,29.88,ESE,113,0.0,0.0,83,0.00,NA,NA,-99.99,VWS Version 10.38,2013-10-18 03:30:00,
2013-10-17 23:35:00,61.7,56.5,29.88,ESE,106,0.0,0.0,83,0.00,NA,NA,-99.99,VWS Version 10.38,2013-10-18 03:35:00,
2013-10-17 23:40:00,61.7,56.5,29.88,ESE,106,0.0,0.0,83,0.00,NA,NA,-99.99,VWS Version 10.38,2013-10-18 03:40:00,
2013-10-17 23:45:00,61.7,56.5,29.88,ESE,112,0.0,0.0,83,0.00,NA,NA,-99.99,VWS Version 10.38,2013-10-18 03:45:00,
2013-10-17 23:50:00,61.7,56.5,29.88,SE,125,0.0,0.0,83,0.00,NA,NA,-99.99,VWS Version 10.38,2013-10-18 03:50:00,
2013-10-17 23:55:00,61.9,56.7,29.85,ESE,116,0.0,0.0,83,0.00,NA,NA,-99.99,VWS Version 10.38,2013-10-18 03:55:00,